Time,TemperatureF,DewpointF,PressureIn,WindDirection,WindDirectionDegrees,WindSpeedMPH,WindSpeedGustMPH,Humidity,HourlyPrecipIn,Conditions,Clouds,dailyrainin,SoftwareType,DateUTC
2013-01-20 00:00:00,29.3,21.4,29.58,ENE,78,10.0,13.0,72,0.00,RA,,0.00,WeatherDisplay:10.37,2013-01-20 00:00:00,
2013-01-20 00:10:00,29.1,21.2,29.58,ENE,72,7.0,12.0,72,0.00,CLR,,0.00,WeatherDisplay:10.37,2013-01-20 00:10:00,
2013-01-20 00:20:00,29.3,21.4,29.58,ENE,65,13.0,17.0,72,0.00,CLR,,0.00,WeatherDisplay:10.37,2013-01-20 00:20:00,
2013-01-20 00:30:00,29.5,21.9,29.57,ENE,60,15.0,21.0,73,0.00,CLR,,0.00,WeatherDisplay:10.37,2013-01-20 00:30:00,
2013-01-20 00:40:00,29.7,21.7,29.57,ENE,62,16.0,22.0,72,0.00,CLR,,0.00,WeatherDisplay:10.37,2013-01-20 00:40:00,
2013-01-20 00:50:00,29.7,21.4,29.57,ENE,59,16.0,21.0,71,0.00,CLR,,0.00,WeatherDisplay:10.37,2013-01-20 00:50:00,
2013-01-20 01:10:00,29.7,21.1,29.57,ENE,69,9.0,20.0,70,0.00,CLR,,0.00,WeatherDisplay:10.37,2013-01-20 01:10:00,
2013-01-20 01:20:00,29.3,20.7,29.57,ENE,62,7.0,13.0,70,0.00,CLR,,0.00,WeatherDisplay:10.37,2013-01-20 01:20:00,
2013-01-20 01:30:00,29.1,20.9,29.57,NE,55,9.0,12.0,71,0.00,CLR,,0.00,WeatherDisplay:10.37,2013-01-20 01:30:00,
2013-01-20 01:40:00,29.1,20.9,29.57,ENE,61,14.0,17.0,71,0.00,CLR,,0.00,WeatherDisplay:10.37,2013-01-20 01:40:00,
2013-01-20 01:50:00,29.3,21.1,29.57,ENE,61,9.0,17.0,71,0.00,CLR,,0.00,WeatherDisplay:10.37,2013-01-20 01:50:00,
2013-01-20 02:00:00,29.3,21.1,29.57,ENE,58,14.0,16.0,71,0.00,CLR,,0.00,WeatherDisplay:10.37,2013-01-20 02:00:00,
2013-01-20 02:10:00,29.3,20.7,29.57,ENE,65,9.0,14.0,70,0.00,CLR,,0.00,WeatherDisplay:10.37,2013-01-20 02:10:00,
2013-01-20 02:20:00,29.1,20.6,29.57,ENE,62,8.0,13.0,70,0.00,CLR,,0.00,WeatherDisplay:10.37,2013-01-20 02:20:00,
2013-01-20 02:40:00,28.9,20.4,29.56,ENE,61,9.0,15.0,70,0.00,CLR,,0.00,WeatherDisplay:10.37,2013-01-20 02:40:00,
2013-01-20 02:50:00,28.8,20.2,29.56,ENE,60,8.0,11.0,70,0.00,CLR,,0.00,WeatherDisplay:10.37,2013-01-20 02:50:00,
2013-01-20 03:00:00,28.6,20.0,29.56,ENE,59,7.0,12.0,70,0.00,CLR,,0.00,WeatherDisplay:10.37,2013-01-20 03:00:00,
2013-01-20 03:10:00,28.7,20.2,29.55,ENE,59,15.0,17.0,70,0.00,CLR,,0.00,WeatherDisplay:10.37,2013-01-20 03:10:00,
2013-01-20 03:20:00,29.1,19.9,29.55,ENE,60,15.0,20.0,68,0.00,CLR,,0.00,WeatherDisplay:10.37,2013-01-20 03:20:00,
2013-01-20 03:30:00,29.1,19.2,29.55,ENE,67,15.0,18.0,66,0.00,CLR,,0.00,WeatherDisplay:10.37,2013-01-20 03:30:00,
2013-01-20 03:50:00,28.8,18.8,29.56,ENE,58,9.0,13.0,66,0.00,CLR,,0.00,WeatherDisplay:10.37,2013-01-20 03:50:00,
2013-01-20 04:00:00,28.8,19.2,29.55,ENE,58,10.0,15.0,67,0.00,CLR,,0.00,WeatherDisplay:10.37,2013-01-20 04:00:00,
2013-01-20 04:10:00,28.8,19.5,29.55,ENE,64,10.0,13.0,68,0.00,CLR,,0.00,WeatherDisplay:10.37,2013-01-20 04:10:00,
2013-01-20 04:30:00,28.8,19.2,29.55,ENE,59,12.0,18.0,67,0.00,CLR,,0.00,WeatherDisplay:10.37,2013-01-20 04:30:00,
2013-01-20 04:40:00,28.8,18.8,29.55,ENE,63,9.0,17.0,66,0.00,CLR,,0.00,WeatherDisplay:10.37,2013-01-20 04:40:00,
2013-01-20 04:50:00,28.6,18.7,29.55,ENE,68,10.0,13.0,66,0.00,CLR,,0.00,WeatherDisplay:10.37,2013-01-20 04:50:00,
2013-01-20 05:10:00,28.6,18.7,29.55,ENE,63,12.0,13.0,66,0.00,CLR,,0.00,WeatherDisplay:10.37,2013-01-20 05:10:00,
2013-01-20 05:20:00,28.6,18.7,29.55,ENE,76,9.0,13.0,66,0.00,CLR,,0.00,WeatherDisplay:10.37,2013-01-20 05:20:00,
2013-01-20 05:30:00,28.6,19.0,29.55,ENE,74,5.0,17.0,67,0.00,CLR,,0.00,WeatherDisplay:10.37,2013-01-20 05:30:00,
2013-01-20 05:40:00,28.6,19.4,29.55,ENE,77,5.0,14.0,68,0.00,CLR,,0.00,WeatherDisplay:10.37,2013-01-20 05:40:00,
2013-01-20 05:50:00,28.0,18.8,29.55,ENE,78,7.0,9.0,68,0.00,CLR,,0.00,WeatherDisplay:10.37,2013-01-20 05:50:00,
2013-01-20 06:00:00,28.0,18.8,29.55,East,93,2.0,7.0,68,0.00,CLR,,0.00,WeatherDisplay:10.37,2013-01-20 06:00:00,
2013-01-20 06:10:00,28.0,18.8,29.55,ENE,71,9.0,11.0,68,0.00,CLR,,0.00,WeatherDisplay:10.37,2013-01-20 06:10:00,
2013-01-20 06:20:00,28.2,18.7,29.55,ENE,71,5.0,13.0,67,0.00,CLR,,0.00,WeatherDisplay:10.37,2013-01-20 06:20:00,
2013-01-20 06:30:00,28.6,18.7,29.55,ENE,78,8.0,13.0,66,0.00,CLR,,0.00,WeatherDisplay:10.37,2013-01-20 06:30:00,
2013-01-20 06:40:00,28.6,18.7,29.55,ENE,71,7.0,13.0,66,0.00,CLR,,0.00,WeatherDisplay:10.37,2013-01-20 06:40:00,
2013-01-20 06:50:00,28.2,18.3,29.55,ENE,73,8.0,11.0,66,0.00,CLR,,0.00,WeatherDisplay:10.37,2013-01-20 06:50:00,
2013-01-20 07:00:00,28.2,18.3,29.54,ENE,65,8.0,14.0,66,0.00,CLR,,0.00,WeatherDisplay:10.37,2013-01-20 07:00:00,
2013-01-20 07:10:00,28.3,18.4,29.55,ENE,70,6.0,13.0,66,0.00,CLR,,0.00,WeatherDisplay:10.37,2013-01-20 07:10:00,
2013-01-20 07:20:00,28.2,18.3,29.54,ENE,68,5.0,10.0,66,0.00,CLR,,0.00,WeatherDisplay:10.37,2013-01-20 07:20:00,
2013-01-20 07:30:00,28.2,18.3,29.54,NE,54,13.0,17.0,66,0.00,CLR,,0.00,WeatherDisplay:10.37,2013-01-20 07:30:00,
2013-01-20 07:40:00,28.6,18.3,29.54,ENE,58,10.0,17.0,65,0.00,CLR,,0.00,WeatherDisplay:10.37,2013-01-20 07:40:00,
2013-01-20 07:50:00,28.6,18.3,29.54,ENE,60,13.0,17.0,65,0.00,CLR,,0.00,WeatherDisplay:10.37,2013-01-20 07:50:00,
2013-01-20 08:00:00,28.6,18.3,29.54,NE,56,10.0,14.0,65,0.00,CLR,,0.00,WeatherDisplay:10.37,2013-01-20 08:00:00,
2013-01-20 08:10:00,28.6,18.3,29.54,ENE,61,9.0,13.0,65,0.00,CLR,,0.00,WeatherDisplay:10.37,2013-01-20 08:10:00,
2013-01-20 08:20:00,28.2,18.3,29.54,ENE,68,8.0,10.0,66,0.00,CLR,,0.00,WeatherDisplay:10.37,2013-01-20 08:20:00,
2013-01-20 08:30:00,28.0,18.1,29.53,ENE,72,8.0,10.0,66,0.00,CLR,,0.00,WeatherDisplay:10.37,2013-01-20 08:30:00,
2013-01-20 08:40:00,28.2,18.3,29.54,East,82,9.0,13.0,66,0.00,CLR,,0.00,WeatherDisplay:10.37,2013-01-20 08:40:00,
2013-01-20 08:50:00,28.6,18.7,29.53,ENE,62,7.0,13.0,66,0.00,CLR,,0.00,WeatherDisplay:10.37,2013-01-20 08:50:00,
2013-01-20 09:00:00,28.8,18.8,29.53,NE,53,10.0,16.0,66,0.00,CLR,,0.00,WeatherDisplay:10.37,2013-01-20 09:00:00,
2013-01-20 09:10:00,28.8,19.2,29.52,ENE,62,13.0,17.0,67,0.00,CLR,,0.00,WeatherDisplay:10.37,2013-01-20 09:10:00,
2013-01-20 09:20:00,28.9,19.3,29.52,ENE,65,12.0,15.0,67,0.00,CLR,,0.00,WeatherDisplay:10.37,2013-01-20 09:20:00,
2013-01-20 09:30:00,29.1,19.5,29.52,ENE,69,9.0,13.0,67,0.00,CLR,,0.00,WeatherDisplay:10.37,2013-01-20 09:30:00,
2013-01-20 09:40:00,29.1,19.5,29.53,East,87,6.0,15.0,67,0.00,CLR,,0.00,WeatherDisplay:10.37,2013-01-20 09:40:00,
2013-01-20 09:50:00,29.1,19.5,29.52,East,85,6.0,12.0,67,0.00,CLR,,0.00,WeatherDisplay:10.37,2013-01-20 09:50:00,
2013-01-20 10:00:00,29.1,19.9,29.52,East,92,7.0,15.0,68,0.00,CLR,,0.00,WeatherDisplay:10.37,2013-01-20 10:00:00,
2013-01-20 10:10:00,29.1,19.9,29.52,East,80,10.0,14.0,68,0.00,CLR,,0.00,WeatherDisplay:10.37,2013-01-20 10:10:00,
2013-01-20 10:20:00,29.1,19.9,29.52,ENE,75,13.0,15.0,68,0.00,CLR,,0.00,WeatherDisplay:10.37,2013-01-20 10:20:00,
2013-01-20 10:30:00,29.5,19.9,29.52,ENE,67,14.0,20.0,67,0.00,CLR,,0.00,WeatherDisplay:10.37,2013-01-20 10:30:00,
2013-01-20 10:40:00,29.7,20.0,29.52,ENE,72,6.0,16.0,67,0.00,CLR,,0.00,WeatherDisplay:10.37,2013-01-20 10:40:00,
2013-01-20 10:50:00,29.8,20.2,29.52,ENE,78,6.0,11.0,67,0.00,CLR,,0.00,WeatherDisplay:10.37,2013-01-20 10:50:00,
2013-01-20 11:00:00,30.0,20.3,29.52,ENE,78,7.0,8.0,67,0.00,CLR,,0.00,WeatherDisplay:10.37,2013-01-20 11:00:00,
2013-01-20 11:10:00,29.7,19.7,29.51,East,86,6.0,12.0,66,0.00,CLR,,0.00,WeatherDisplay:10.37,2013-01-20 11:10:00,
2013-01-20 11:20:00,29.7,19.3,29.50,East,79,9.0,17.0,65,0.00,CLR,,0.00,WeatherDisplay:10.37,2013-01-20 11:20:00,
2013-01-20 11:30:00,29.8,19.5,29.50,ENE,65,14.0,20.0,65,0.00,CLR,,0.00,WeatherDisplay:10.37,2013-01-20 11:30:00,
2013-01-20 11:40:00,29.8,19.5,29.50,ENE,58,13.0,20.0,65,0.00,CLR,,0.00,WeatherDisplay:10.37,2013-01-20 11:40:00,
2013-01-20 11:50:00,29.8,19.5,29.49,ENE,66,16.0,20.0,65,0.00,CLR,,0.00,WeatherDisplay:10.37,2013-01-20 11:50:00,
2013-01-20 12:00:00,30.0,19.7,29.49,ENE,64,15.0,20.0,65,0.00,CLR,,0.00,WeatherDisplay:10.37,2013-01-20 12:00:00,
2013-01-20 12:10:00,30.4,20.0,29.49,ENE,73,9.0,17.0,65,0.00,CLR,,0.00,WeatherDisplay:10.37,2013-01-20 12:10:00,
2013-01-20 12:20:00,30.4,19.6,29.49,East,86,7.0,20.0,64,0.00,CLR,,0.00,WeatherDisplay:10.37,2013-01-20 12:20:00,
2013-01-20 12:30:00,30.4,19.7,29.48,ENE,62,13.0,19.0,64,0.00,CLR,,0.00,WeatherDisplay:10.37,2013-01-20 12:30:00,
2013-01-20 12:40:00,30.6,19.8,29.48,ENE,68,12.0,18.0,64,0.00,CLR,,0.00,WeatherDisplay:10.37,2013-01-20 12:40:00,
2013-01-20 12:50:00,30.6,19.9,29.47,ENE,69,15.0,18.0,64,0.00,CLR,,0.00,WeatherDisplay:10.37,2013-01-20 12:50:00,
2013-01-20 13:00:00,30.7,20.0,29.47,ENE,68,9.0,18.0,64,0.00,CLR,,0.00,WeatherDisplay:10.37,2013-01-20 13:00:00,
2013-01-20 13:10:00,30.8,20.1,29.47,ENE,74,9.0,16.0,64,0.00,CLR,,0.00,WeatherDisplay:10.37,2013-01-20 13:10:00,
2013-01-20 13:20:00,30.7,20.4,29.47,ENE,72,10.0,18.0,65,0.00,CLR,,0.00,WeatherDisplay:10.37,2013-01-20 13:20:00,
2013-01-20 13:30:00,30.6,20.2,29.47,ENE,77,8.0,17.0,65,0.00,CLR,,0.00,WeatherDisplay:10.37,2013-01-20 13:30:00,
2013-01-20 13:40:00,30.7,20.4,29.47,ENE,71,9.0,19.0,65,0.00,CLR,,0.00,WeatherDisplay:10.37,2013-01-20 13:40:00,
2013-01-20 13:50:00,30.9,20.5,29.46,East,82,7.0,12.0,65,0.00,CLR,,0.00,WeatherDisplay:10.37,2013-01-20 13:50:00,
2013-01-20 14:00:00,30.7,20.4,29.46,ENE,72,7.0,18.0,65,0.00,CLR,,0.00,WeatherDisplay:10.37,2013-01-20 14:00:00,
2013-01-20 14:10:00,30.6,20.2,29.46,ENE,62,13.0,17.0,65,0.00,CLR,,0.00,WeatherDisplay:10.37,2013-01-20 14:10:00,
2013-01-20 14:20:00,30.4,20.4,29.46,ENE,65,9.0,18.0,66,0.00,CLR,,0.00,WeatherDisplay:10.37,2013-01-20 14:20:00,
2013-01-20 14:30:00,30.4,20.7,29.46,ENE,71,14.0,18.0,67,0.00,CLR,,0.00,WeatherDisplay:10.37,2013-01-20 14:30:00,
2013-01-20 14:40:00,30.4,20.7,29.45,ENE,69,10.0,17.0,67,0.00,CLR,,0.00,WeatherDisplay:10.37,2013-01-20 14:40:00,
2013-01-20 14:50:00,30.4,20.7,29.46,ENE,68,12.0,19.0,67,0.00,CLR,,0.00,WeatherDisplay:10.37,2013-01-20 14:50:00,
2013-01-20 15:00:00,30.4,20.7,29.46,ENE,76,14.0,17.0,67,0.00,CLR,,0.00,WeatherDisplay:10.37,2013-01-20 15:00:00,
2013-01-20 15:10:00,30.4,20.7,29.46,ENE,73,12.0,14.0,67,0.00,CLR,,0.00,WeatherDisplay:10.37,2013-01-20 15:10:00,
2013-01-20 15:20:00,30.4,20.4,29.46,ENE,64,14.0,17.0,66,0.00,CLR,,0.00,WeatherDisplay:10.37,2013-01-20 15:20:00,
2013-01-20 15:30:00,30.5,20.4,29.46,ENE,74,12.0,20.0,66,0.00,CLR,,0.00,WeatherDisplay:10.37,2013-01-20 15:30:00,
2013-01-20 15:40:00,30.4,20.7,29.46,ENE,76,12.0,20.0,67,0.00,CLR,,0.00,WeatherDisplay:10.37,2013-01-20 15:40:00,
2013-01-20 15:50:00,30.2,20.9,29.46,ENE,74,12.0,19.0,68,0.00,CLR,,0.00,WeatherDisplay:10.37,2013-01-20 15:50:00,
2013-01-20 16:00:00,30.2,20.9,29.45,ENE,70,14.0,18.0,68,0.00,CLR,,0.00,WeatherDisplay:10.37,2013-01-20 16:00:00,
2013-01-20 16:10:00,30.0,20.7,29.46,ENE,71,16.0,18.0,68,0.00,CLR,,0.00,WeatherDisplay:10.37,2013-01-20 16:10:00,
2013-01-20 16:20:00,29.9,20.7,29.45,ENE,68,12.0,20.0,68,0.00,CLR,,0.00,WeatherDisplay:10.37,2013-01-20 16:20:00,
2013-01-20 16:30:00,29.8,20.6,29.45,ENE,72,15.0,18.0,68,0.00,CLR,,0.00,WeatherDisplay:10.37,2013-01-20 16:30:00,
2013-01-20 16:40:00,29.8,20.6,29.45,ENE,62,8.0,19.0,68,0.00,CLR,,0.00,WeatherDisplay:10.37,2013-01-20 16:40:00,
2013-01-20 16:50:00,29.8,20.6,29.45,ENE,65,13.0,15.0,68,0.00,CLR,,0.00,WeatherDisplay:10.37,2013-01-20 16:50:00,
2013-01-20 17:00:00,29.9,20.6,29.45,ENE,72,15.0,23.0,68,0.00,CLR,,0.00,WeatherDisplay:10.37,2013-01-20 17:00:00,
2013-01-20 17:10:00,29.9,20.6,29.44,ENE,72,13.0,21.0,68,0.00,CLR,,0.00,WeatherDisplay:10.37,2013-01-20 17:10:00,
2013-01-20 17:20:00,30.0,20.4,29.44,ENE,73,10.0,18.0,67,0.00,CLR,,0.00,WeatherDisplay:10.37,2013-01-20 17:20:00,
2013-01-20 17:30:00,29.8,20.2,29.44,ENE,67,16.0,20.0,67,0.00,CLR,,0.00,WeatherDisplay:10.37,2013-01-20 17:30:00,
2013-01-20 17:40:00,30.2,20.6,29.44,ENE,68,13.0,23.0,67,0.00,CLR,,0.00,WeatherDisplay:10.37,2013-01-20 17:40:00,
2013-01-20 17:50:00,30.0,20.0,29.44,East,80,13.0,20.0,66,0.00,CLR,,0.00,WeatherDisplay:10.37,2013-01-20 17:50:00,
2013-01-20 18:00:00,30.0,20.0,29.44,ENE,66,13.0,20.0,66,0.00,CLR,,0.00,WeatherDisplay:10.37,2013-01-20 18:00:00,
2013-01-20 18:10:00,30.1,20.1,29.44,ENE,72,14.0,17.0,66,0.00,CLR,,0.00,WeatherDisplay:10.37,2013-01-20 18:10:00,
2013-01-20 18:20:00,30.3,19.9,29.43,ENE,65,12.0,16.0,65,0.00,CLR,,0.00,WeatherDisplay:10.37,2013-01-20 18:20:00,
2013-01-20 18:30:00,30.0,19.7,29.43,ENE,66,12.0,17.0,65,0.00,CLR,,0.00,WeatherDisplay:10.37,2013-01-20 18:30:00,
2013-01-20 18:40:00,30.2,19.8,29.43,ENE,70,15.0,17.0,65,0.00,CLR,,0.00,WeatherDisplay:10.37,2013-01-20 18:40:00,
2013-01-20 18:50:00,30.0,19.7,29.43,ENE,72,13.0,17.0,65,0.00,CLR,,0.00,WeatherDisplay:10.37,2013-01-20 18:50:00,
2013-01-20 19:00:00,30.0,20.0,29.43,ENE,67,13.0,18.0,66,0.00,CLR,,0.00,WeatherDisplay:10.37,2013-01-20 19:00:00,
2013-01-20 19:10:00,29.7,20.0,29.43,ENE,70,15.0,20.0,67,0.00,CLR,,0.00,WeatherDisplay:10.37,2013-01-20 19:10:00,
2013-01-20 19:20:00,29.7,20.7,29.43,ENE,78,17.0,22.0,69,0.00,CLR,,0.00,WeatherDisplay:10.37,2013-01-20 19:20:00,
2013-01-20 19:30:00,29.3,20.7,29.43,ENE,64,12.0,20.0,70,0.00,CLR,,0.00,WeatherDisplay:10.37,2013-01-20 19:30:00,
2013-01-20 19:40:00,29.3,21.1,29.43,ENE,70,12.0,14.0,71,0.00,CLR,,0.00,WeatherDisplay:10.37,2013-01-20 19:40:00,
2013-01-20 19:50:00,29.5,21.2,29.43,ENE,71,13.0,17.0,71,0.00,CLR,,0.00,WeatherDisplay:10.37,2013-01-20 19:50:00,
2013-01-20 20:00:00,29.7,21.7,29.43,ENE,72,16.0,20.0,72,0.00,CLR,,0.00,WeatherDisplay:10.37,2013-01-20 20:00:00,
2013-01-20 20:10:00,29.7,22.1,29.43,ENE,72,14.0,21.0,73,0.00,CLR,,0.00,WeatherDisplay:10.37,2013-01-20 20:10:00,
2013-01-20 20:20:00,29.8,22.5,29.43,East,82,9.0,20.0,74,0.00,CLR,,0.00,WeatherDisplay:10.37,2013-01-20 20:20:00,
2013-01-20 20:30:00,29.8,22.1,29.43,ENE,66,12.0,19.0,73,0.00,CLR,,0.00,WeatherDisplay:10.37,2013-01-20 20:30:00,
2013-01-20 20:40:00,29.7,22.1,29.43,ENE,64,13.0,17.0,73,0.00,CLR,,0.00,WeatherDisplay:10.37,2013-01-20 20:40:00,
2013-01-20 20:50:00,29.7,22.1,29.43,ENE,69,17.0,20.0,73,0.00,CLR,,0.00,WeatherDisplay:10.37,2013-01-20 20:50:00,
2013-01-20 21:00:00,29.8,22.5,29.42,ENE,67,17.0,21.0,74,0.00,CLR,,0.00,WeatherDisplay:10.37,2013-01-20 21:00:00,
2013-01-20 21:10:00,29.7,22.7,29.43,ENE,71,16.0,23.0,75,0.00,CLR,,0.00,WeatherDisplay:10.37,2013-01-20 21:10:00,
2013-01-20 21:20:00,29.5,22.8,29.42,ENE,73,12.0,20.0,76,0.00,CLR,,0.00,WeatherDisplay:10.37,2013-01-20 21:20:00,
2013-01-20 21:30:00,29.7,23.0,29.42,ENE,68,14.0,20.0,76,0.00,CLR,,0.00,WeatherDisplay:10.37,2013-01-20 21:30:00,
2013-01-20 21:40:00,29.5,22.8,29.42,ENE,73,16.0,20.0,76,0.00,CLR,,0.00,WeatherDisplay:10.37,2013-01-20 21:40:00,
2013-01-20 21:50:00,29.6,22.6,29.42,East,90,9.0,20.0,75,0.00,CLR,,0.00,WeatherDisplay:10.37,2013-01-20 21:50:00,
2013-01-20 22:00:00,29.7,22.7,29.42,ENE,70,18.0,22.0,75,0.00,CLR,,0.00,WeatherDisplay:10.37,2013-01-20 22:00:00,
2013-01-20 22:10:00,29.5,22.5,29.42,ENE,74,13.0,21.0,75,0.00,CLR,,0.00,WeatherDisplay:10.37,2013-01-20 22:10:00,
2013-01-20 22:20:00,29.3,22.4,29.42,ENE,68,15.0,17.0,75,0.00,CLR,,0.00,WeatherDisplay:10.37,2013-01-20 22:20:00,
2013-01-20 22:30:00,29.5,22.5,29.42,ENE,68,13.0,19.0,75,0.00,CLR,,0.00,WeatherDisplay:10.37,2013-01-20 22:30:00,
2013-01-20 22:40:00,29.3,22.4,29.42,ENE,76,10.0,17.0,75,0.00,CLR,,0.00,WeatherDisplay:10.37,2013-01-20 22:40:00,
2013-01-20 22:50:00,29.1,22.5,29.42,East,94,6.0,14.0,76,0.00,CLR,,0.00,WeatherDisplay:10.37,2013-01-20 22:50:00,
2013-01-20 23:00:00,28.9,22.3,29.42,East,82,5.0,9.0,76,0.00,CLR,,0.00,WeatherDisplay:10.37,2013-01-20 23:00:00,
2013-01-20 23:10:00,28.9,22.6,29.42,ENE,70,13.0,18.0,77,0.00,CLR,,0.00,WeatherDisplay:10.37,2013-01-20 23:10:00,
2013-01-20 23:20:00,29.1,23.1,29.42,ENE,73,12.0,18.0,78,0.00,CLR,,0.00,WeatherDisplay:10.37,2013-01-20 23:20:00,
2013-01-20 23:30:00,29.1,23.4,29.42,East,86,13.0,18.0,79,0.00,CLR,,0.00,WeatherDisplay:10.37,2013-01-20 23:30:00,
2013-01-20 23:40:00,28.9,23.2,29.42,East,86,8.0,12.0,79,0.00,CLR,,0.00,WeatherDisplay:10.37,2013-01-20 23:40:00,
2013-01-20 23:50:00,28.8,23.4,29.42,East,82,6.0,11.0,80,0.00,CLR,,0.00,WeatherDisplay:10.37,2013-01-20 23:50:00,